Cloud_Cover
5 39 100 100 100 99 16 8 5 4 0 1 4 5 2 0 3 1 18 1 0 8 2 8 2 1 0 0 0 0 0 0 1 7 12 0 3 0 0 0 0 3 18 18 12 3 0 0 0
5 5 78 58 75 85 79 52 5 5 1 1 0 0 0 0 2 79 37 17 0 6 3 2 0 0 0 0 0 0 0 0 0 0 2 0 3 4 0 0 0 0 1 0 1 0 0 0 0
29 5 5 6 5 63 12 16 5 11 27 4 7 4 3 2 56 48 1 8 4 26 5 0 0 0 0 4 12 0 8 1 0 0 0 0 0 0 1 2 0 0 0 0 0 0 0 0 0
21 30 48 2 4 3 5 98 43 6 5 5 5 4 0 0 0 4 24 3 25 58 9 0 16 0 1 28 1 0 0 1 1 0 0 6 22 0 0 0 0 0 0 0 0 0 0 0 0
5 24 96 100 82 28 5 11 5 6 6 4 5 4 0 0 2 39 10 7 30 73 10 26 36 3 1 0 0 0 0 0 0 6 0 0 0 0 0 0 0 0 0 0 0 0 0 5 4
5 6 3 5 23 35 34 3 0 0 3 2 4 4 5 7 36 18 0 1 28 62 24 20 7 3 3 0 0 0 0 0 0 0 0 0 0 4 7 0 0 0 0 0 0 0 0 4 5
2 0 5 5 5 5 6 0 0 0 3 2 5 0 21 37 1 0 0 6 40 90 28 5 3 1 0 0 0 0 0 0 0 0 0 0 0 0 0 0 0 0 0 0 0 0 0 2 5
0 0 5 5 0 5 4 0 0 3 2 0 0 0 0 0 0 0 0 47 100 100 39 9 0 3 0 0 0 0 0 0 0 0 0 0 0 0 0 0 0 0 0 0 0 0 0 5 5
3 0 0 0 0 0 0 0 5 0 5 1 0 0 0 0 0 0 9 71 100 100 92 28 23 12 8 0 0 0 0 0 0 0 0 0 0 0 0 0 0 0 0 0 0 0 2 5 5
0 0 0 0 1 0 0 2 5 4 3 2 0 0 0 0 0 0 0 26 93 100 100 45 36 30 24 0 0 0 0 0 0 0 0 0 0 0 0 0 0 0 0 0 0 0 5 5 5
0 0 0 0 0 5 5 3 0 0 0 0 0 0 0 0 0 0 0 0 8 42 100 48 40 27 28 0 21 21 4 3 0 0 0 0 0 0 0 0 0 0 0 0 0 5 5 5 5
0 0 0 0 0 0 0 0 0 0 0 0 0 4 4 0 0 0 0 0 0 0 26 28 38 41 30 13 26 14 12 4 0 0 0 0 0 0 0 0 0 0 0 0 0 1 4 5 40
0 0 0 0 0 0 4 0 0 0 0 0 0 0 0 0 0 0 0 0 1 4 0 6 30 37 28 8 18 18 10 3 0 0 0 0 0 0 0 0 0 0 0 0 5 3 5 5 3
0 0 0 0 0 0 0 1 0 3 0 3 0 2 0 0 2 5 4 5 5 2 2 1 0 11 10 1 6 2 0 0 0 0 0 0 0 0 3 0 0 0 0 0 0 1 2 5 5
0 0 0 0 0 0 0 0 0 0 0 5 0 5 0 2 3 0 0 2 5 0 0 0 0 0 0 0 0 0 0 0 0 0 0 0 0 0 0 0 0 0 4 2 4 0 0 0 0
0 0 0 0 0 0 0 0 0 0 0 0 4 4 3 0 0 0 0 0 5 0 0 0 0 0 0 0 0 0 0 0 0 0 0 0 0 0 5 5 5 5 5 5 1 1 1 10 8
0 0 0 0 0 0 0 0 0 0 0 0 0 33 0 0 0 4 5 5 0 0 0 0 0 0 0 0 2 3 0 5 5 5 5 5 5 5 5 5 5 5 11 5 5 5 13 79 98
0 0 0 0 0 0 0 0 0 0 0 0 0 0 0 2 4 49 7 0 0 0 0 0 0 0 0 5 5 5 5 5 4 2 3 5 5 8 70 94 71 99 14 5 5 8 58 100 54
60 99 84 2 0 0 0 0 33 62 5 0 0 0 0 0 0 3 0 0 0 0 0 0 0 0 0 0 4 0 0 5 2 2 5 6 28 100 100 95 88 100 100 68 26 9 80 64 96
100 60 52 5 5 0 0 2 4 78 83 59 25 14 5 5 5 2 1 0 0 0 0 0 2 4 5 5 5 2 5 5 5 5 85 100 100 100 78 21 14 100 84 97 84 64 36 99 100
5 4 4 2 0 2 2 83 27 83 100 100 100 100 70 4 4 3 5 0 0 0 0 0 5 5 5 25 31 100 96 59 67 94 100 100 100 94 91 98 61 38 94 100 74 79 99 97 81
43 5 0 0 0 0 0 77 88 33 100 100 83 72 14 9 67 55 35 21 14 18 8 65 34 88 69 100 100 100 100 100 100 100 100 100 100 100 100 95 100 86 99 89 78 57 100 60 78
67 99 66 76 4 1 4 1 100 91 98 70 5 5 34 6 38 94 94 84 99 47 51 38 84 100 100 100 100 100 100 100 100 100 100 100 100 29 42 80 100 100 78 56 100 40 58 100 94
100 100 99 100 4 0 0 0 4 1 4 89 61 42 58 85 94 100 66 38 100 61 58 67 100 100 100 100 100 100 100 100 100 100 100 100 100 45 78 96 100 100 100 97 82 70 13 76 60
100 100 100 82 100 2 5 11 0 24 0 5 27 99 70 99 100 100 100 100 100 96 100 100 100 100 100 100 100 100 100 100 100 100 100 54 48 69 81 88 67 7 24 7 18 2 0 0 0
100 100 100 100 100 100 99 17 0 83 100 5 80 74 97 100 100 100 100 100 100 100 100 100 100 100 100 100 100 100 100 100 100 81 14 70 79 97 2 99 74 17 5 5 0 0 0 0 0
5 64 82 12 43 27 48 65 28 99 100 100 100 100 100 100 100 100 100 100 100 92 100 100 100 100 100 100 100 100 100 99 87 12 19 5 29 5 33 86 2 4 1 0 0 0 1 5 4
0 0 0 0 0 0 0 0 0 51 56 100 100 100 100 100 100 100 100 100 100 100 100 100 100 100 100 100 100 100 100 25 76 98 82 41 89 100 100 23 26 4 0 3 4 5 5 5 5
0 0 0 0 0 0 0 0 0 0 2 100 100 100 100 100 100 100 100 100 100 100 100 100 100 100 100 100 100 100 93 47 100 100 62 100 100 100 7 5 5 5 5 5 5 5 5 5 5
0 0 0 0 0 0 0 0 0 0 46 100 100 100 99 100 100 100 100 100 100 100 100 100 100 79 98 100 100 94 97 100 95 100 100 42 2 3 5 5 5 5 5 5 5 5 5 5 5